Погода в Черебаеве

Россия / Волгоградская область     50°43′12″N   45°55′00″E
темп.,
°C
ветер,
м/с
пор.,
м/с
влажн.,
%
обл.,
%
осадки,
мм/ч
давл.,
гПа
погр.,
м
12 апреля, пн
пн1200:00+8с559184 0.0 102635
03:00+10ссв2383100 0.0 102614
06:00+8ссв3375100 0.0 102716
09:00+12в345985 0.0 1029148
12:00+15вюв694512 0.0 1028608
15:00+16вюв7104320 0.0 1028687
18:00+14вюв68475 0.0 1029107
21:00+11в58565 0.0 103099
13 апреля, вт
вт1300:00+9в466459 0.0 103077
03:00+8всв236768 0.0 103030
06:00+7св336961 0.0 103120
09:00+11в46555 0.0 1031196
12:00+14вюв684313 0.0 1030456
15:00+15вюв7841100 0.0 1029554
18:00+13вюв5749100 0.0 102893
21:00+10в585735 0.0 102891
14 апреля, ср
ср1400:00+9в466516 0.0 102773
03:00+7св34690 0.0 102633
06:00+7св34710 0.0 102659
09:00+10вюв56540 0.0 1025216
12:00+13вюв68463 0.0 1023477
15:00+14вюв68446 0.0 1022628
18:00+14вюв565139 0.0 102178
21:00+11в46635 0.0 102170
15 апреля, чт
чт1500:00+9всв34735 0.0 102051
03:00+8ссв337897 0.0 102020
06:00+8св4478100 0.0 101941
09:00+11всв346527 0.0 1019157
12:00+16в564854 0.0 1017423
15:00+16вюв464286 0.0 1016856
18:00+15вюв444989 0.0 101645
21:00+12юв3459100 0.0 101630
16 апреля, пт
пт1600:00+10вюв1266100 0.0 101612
03:00+9всв226664 0.0 101610
06:00+9св226525 0.0 101614
09:00+11св22604 0.0 1016157
12:00+13с115311 0.0 1016485
15:00+14сз225117 0.0 1016527
18:00+14ссз1151100 0.0 101616
21:00+12с4455100 0.0 101723